Weather History for Sidney-Richland, MT

Change the Weather History Date:

Wednesday, January 23, 2013

  Actual Average Record
Temperature  
Mean Temperature 4 °F -  
Max Temperature 8 °F 27 °F 54 °F (1981)
Min Temperature 1 °F 7 °F -35 °F (1922)
Degree Days  
Heating Degree Days 60    
Moisture  
Dew Point -1 °F    
Average Humidity 72    
Maximum Humidity 92    
Minimum Humidity 56    
Precipitation  
Precipitation 0.00 in - - ()
Sea Level Pressure  
Sea Level Pressure 30.34 in    
Wind  
Wind Speed 8 mph (NE)    
Max Wind Speed 14 mph    
Max Gust Speed -    
Visibility 10 miles    
Events      
Averages and records for this station are not official NWS values.
T = Trace of Precipitation, MM = Missing Value Source: NWS Daily Summary

Daily Weather History Graph

Daily Weather History Graph

Search for Another Location

Airport:

Trip Planner

Search our weather history database for the weather conditions in past years. The results will help you decide how hot, cold, wet, or windy it might be!

Date:

Astronomy

Jan. 23, 2013 Rise Set
Actual Time 7:33 AM MST 4:44 PM MST
Civil Twilight 6:59 AM MST 5:18 PM MST
Nautical Twilight 6:21 AM MST 5:56 PM MST
Astronomical Twilight 5:45 AM MST 6:32 PM MST
Moon 1:53 PM MST (1/23) 4:50 AM MST (1/23)
Length of Visible Light 10h 18m
Length of Day
9h 10m
Waxing Gibbous, 89% of the Moon is Illuminated
Jan 23
Waxing Gibbous
Jan 26
Full
Feb 3
Last Quarter
Feb 10
New
Feb 17
First Quarter

Hourly Weather History & Observations

Time (MST) Temp. Windchill Dew Point Humidity Pressure Visibility Wind Dir Wind Speed Gust Speed Precip Events Conditions
12:15 AM 8.6 °F -3.7 °F 3.2 °F 79% 30.23 in 10.0 mi NNW 8.1 mph - N/A   Partly Cloudy
12:35 AM 8.6 °F -3.7 °F 3.2 °F 79% 30.22 in 10.0 mi NNW 8.1 mph - N/A   Partly Cloudy
12:55 AM 8.6 °F -2.6 °F 3.2 °F 79% 30.23 in 10.0 mi NNW 6.9 mph - N/A   Partly Cloudy
1:15 AM 8.6 °F -3.7 °F 3.2 °F 79% 30.23 in 10.0 mi NNW 8.1 mph - N/A   Scattered Clouds
1:35 AM 8.6 °F -4.7 °F 3.2 °F 79% 30.24 in 10.0 mi North 9.2 mph - N/A   Scattered Clouds
1:55 AM 8.6 °F -5.5 °F 3.2 °F 79% 30.25 in 10.0 mi North 10.4 mph - N/A   Partly Cloudy
2:15 AM 8.6 °F -4.7 °F 3.2 °F 79% 30.26 in 10.0 mi North 9.2 mph - N/A   Clear
2:35 AM 6.8 °F -8.6 °F 3.2 °F 85% 30.27 in 10.0 mi NNW 11.5 mph - N/A   Clear
2:55 AM 6.8 °F -6.9 °F 1.4 °F 79% 30.27 in 10.0 mi North 9.2 mph - N/A   Clear
3:55 AM 5.0 °F -4.1 °F -0.4 °F 78% 30.29 in 10.0 mi NNW 4.6 mph - N/A   Clear
4:35 AM 5.0 °F -5.6 °F -0.4 °F 78% 30.29 in 10.0 mi NNW 5.8 mph - N/A   Clear
4:55 AM 3.2 °F -7.8 °F -0.4 °F 85% 30.31 in 10.0 mi NNW 5.8 mph - N/A   Clear
5:15 AM 3.2 °F -7.8 °F -0.4 °F 85% 30.31 in 10.0 mi North 5.8 mph - N/A   Clear
5:35 AM 1.4 °F -8.3 °F -5.8 °F 72% 30.33 in 10.0 mi North 4.6 mph - N/A   Clear
5:55 AM 3.2 °F -9.1 °F 1.4 °F 92% 30.33 in 10.0 mi North 6.9 mph - N/A   Clear
6:15 AM 3.2 °F -11.3 °F 1.4 °F 92% 30.34 in 10.0 mi North 9.2 mph - N/A   Scattered Clouds
6:35 AM 3.2 °F -6.2 °F -2.2 °F 78% 30.34 in 10.0 mi NW 4.6 mph - N/A   Scattered Clouds
6:55 AM 3.2 °F -6.2 °F -0.4 °F 85% 30.34 in 10.0 mi NNW 4.6 mph - N/A   Clear
7:15 AM 5.0 °F -8.1 °F 1.4 °F 85% 30.35 in 10.0 mi North 8.1 mph - N/A   Clear
7:35 AM 5.0 °F -8.1 °F -0.4 °F 78% 30.37 in 10.0 mi North 8.1 mph - N/A   Clear
7:55 AM 5.0 °F -9.1 °F -2.2 °F 72% 30.38 in 10.0 mi NNE 9.2 mph - N/A   Clear
8:15 AM 5.0 °F -10.0 °F -0.4 °F 78% 30.41 in 10.0 mi North 10.4 mph - N/A   Mostly Cloudy
8:35 AM 5.0 °F -10.0 °F -2.2 °F 72% 30.40 in 10.0 mi NNE 10.4 mph - N/A   Mostly Cloudy
8:55 AM 5.0 °F -10.0 °F -5.8 °F 61% 30.41 in 10.0 mi North 10.4 mph - N/A   Clear
9:15 AM 5.0 °F -6.9 °F -2.2 °F 72% 30.42 in 10.0 mi NNE 6.9 mph - N/A   Partly Cloudy
9:35 AM 6.8 °F -3.5 °F -2.2 °F 67% 30.42 in 10.0 mi North 5.8 mph - N/A   Scattered Clouds
9:55 AM 5.0 °F -6.9 °F -5.8 °F 61% 30.42 in 10.0 mi NNE 6.9 mph - N/A   Partly Cloudy
10:15 AM 5.0 °F -8.1 °F -4.0 °F 66% 30.43 in 10.0 mi North 8.1 mph - N/A   Clear
10:35 AM 6.8 °F -4.8 °F -4.0 °F 61% 30.43 in 10.0 mi NE 6.9 mph - N/A   Scattered Clouds
10:55 AM 6.8 °F -2.0 °F -5.8 °F 56% 30.44 in 10.0 mi NNE 4.6 mph - N/A   Scattered Clouds
11:15 AM 6.8 °F -3.5 °F -2.2 °F 67% 30.43 in 10.0 mi NE 5.8 mph - N/A   Scattered Clouds
11:55 AM 6.8 °F -5.9 °F -4.0 °F 61% 30.42 in 10.0 mi NE 8.1 mph - N/A   Mostly Cloudy
12:15 PM 6.8 °F -4.8 °F -4.0 °F 61% 30.43 in 10.0 mi NE 6.9 mph - N/A   Scattered Clouds
12:35 PM 6.8 °F -4.8 °F -4.0 °F 61% 30.42 in 10.0 mi NE 6.9 mph - N/A   Mostly Cloudy
12:55 PM 6.8 °F -2.0 °F -5.8 °F 56% 30.42 in 10.0 mi ENE 4.6 mph - N/A   Mostly Cloudy
1:15 PM 6.8 °F -3.5 °F -4.0 °F 61% 30.41 in 10.0 mi NNE 5.8 mph - N/A   Scattered Clouds
1:35 PM 6.8 °F - -4.0 °F 61% 30.42 in 10.0 mi Calm Calm - N/A   Clear
2:15 PM 6.8 °F -4.8 °F -0.4 °F 72% 30.41 in 10.0 mi ENE 6.9 mph - N/A   Scattered Clouds
2:55 PM 6.8 °F -5.9 °F -2.2 °F 67% 30.40 in 10.0 mi East 8.1 mph - N/A   Overcast
3:15 PM 6.8 °F -4.8 °F -4.0 °F 61% 30.40 in 10.0 mi NE 6.9 mph - N/A   Mostly Cloudy
3:35 PM 6.8 °F -5.9 °F -2.2 °F 67% 30.39 in 10.0 mi ENE 8.1 mph - N/A   Overcast
3:55 PM 6.8 °F -5.9 °F -2.2 °F 67% 30.38 in 10.0 mi ENE 8.1 mph - N/A   Mostly Cloudy
4:15 PM 6.8 °F -4.8 °F -2.2 °F 67% 30.39 in 10.0 mi ENE 6.9 mph - N/A   Scattered Clouds
4:35 PM 6.8 °F -3.5 °F -2.2 °F 67% 30.38 in 10.0 mi East 5.8 mph - N/A   Mostly Cloudy
4:55 PM 6.8 °F -6.9 °F -2.2 °F 67% 30.37 in 10.0 mi East 9.2 mph - N/A   Mostly Cloudy
5:15 PM 6.8 °F -5.9 °F -2.2 °F 67% 30.36 in 10.0 mi ENE 8.1 mph - N/A   Scattered Clouds
5:35 PM 6.8 °F -5.9 °F -2.2 °F 67% 30.36 in 10.0 mi East 8.1 mph - N/A   Mostly Cloudy
5:55 PM 6.8 °F -5.9 °F -0.4 °F 72% 30.34 in 10.0 mi East 8.1 mph - N/A   Scattered Clouds
6:15 PM 6.8 °F -5.9 °F -0.4 °F 72% 30.33 in 10.0 mi East 8.1 mph - N/A   Clear
6:35 PM 6.8 °F -4.8 °F -0.4 °F 72% 30.35 in 10.0 mi ESE 6.9 mph - N/A   Clear
6:55 PM 8.6 °F -2.6 °F 1.4 °F 73% 30.34 in 10.0 mi ESE 6.9 mph - N/A   Clear
7:15 PM 8.6 °F -7.0 °F 1.4 °F 73% 30.33 in 10.0 mi SSE 12.7 mph - N/A   Clear
7:35 PM 8.6 °F -6.3 °F 1.4 °F 73% 30.32 in 10.0 mi SE 11.5 mph - N/A   Clear
7:55 PM 8.6 °F -6.3 °F -0.4 °F 67% 30.31 in 10.0 mi SE 11.5 mph - N/A   Clear
8:15 PM 8.6 °F -7.7 °F 1.4 °F 73% 30.30 in 10.0 mi ESE 13.8 mph - N/A   Clear
8:35 PM 8.6 °F -6.3 °F 1.4 °F 73% 30.30 in 10.0 mi ESE 11.5 mph - N/A   Clear
8:55 PM 6.8 °F -7.8 °F -0.4 °F 72% 30.29 in 10.0 mi ESE 10.4 mph - N/A   Clear
9:15 PM 6.8 °F -7.8 °F -0.4 °F 72% 30.27 in 10.0 mi ESE 10.4 mph - N/A   Clear
9:35 PM 6.8 °F -7.8 °F -0.4 °F 72% 30.27 in 10.0 mi SE 10.4 mph - N/A   Clear
9:55 PM 6.8 °F -8.6 °F -0.4 °F 72% 30.26 in 10.0 mi SE 11.5 mph - N/A   Clear
10:15 PM 6.8 °F -6.9 °F -0.4 °F 72% 30.27 in 10.0 mi ESE 9.2 mph - N/A   Clear
10:35 PM 6.8 °F -8.6 °F -0.4 °F 72% 30.25 in 10.0 mi ESE 11.5 mph - N/A   Clear
10:55 PM 6.8 °F -8.6 °F -0.4 °F 72% 30.24 in 10.0 mi ESE 11.5 mph - N/A   Clear
11:15 PM 6.8 °F -9.3 °F -0.4 °F 72% 30.22 in 10.0 mi ESE 12.7 mph - N/A   Clear
11:35 PM 6.8 °F -9.3 °F 1.4 °F 79% 30.21 in 10.0 mi SE 12.7 mph - N/A   Clear
11:55 PM 6.8 °F -8.6 °F 1.4 °F 79% 30.20 in 10.0 mi SE 11.5 mph - N/A   Clear